Volver al catálogo

STARLINK-3272

ActivoComunicacionesVLEO
NORAD 50187·PAYLOAD·🇺🇸 United States

Lanzado Dec 18, 2021 desde Vandenberg Space Force Base

Loading…

Próximos Pases (próximas 24 horas)

TLE

ActualizadoSource: CelesTrak SupGP

Época: Sep 14, 2026, 20:55 UTC

1 50187C 21125AH  26257.87201389 -.00005895  00000+0 -31478-3 0  2573
2 50187  53.2137 106.0968 0002578 116.7860 246.8956 15.14618034    19

Sigue STARLINK-3272 en tiempo real con AllMySat

Download on the App Store